Location: Ward Pound Ridge Reservation
(41.2500°N, 73.6000°W)
Time: 03:05:24
(UTC-04:00)

Vanguard 1 - All Passes

Search period start: 20 October 2017 00:00
Search period end: 30 October 2017 00:00
Orbit: 650 x 3834 km, 34.3° (Epoch: 18 October)

Date Brightness Start Highest point End Pass type
(mag) Time Alt. Az. Time Alt. Az. Time Alt. Az.
20 Oct - 01:09:37 10° SW 01:22:23 57° SSE 01:43:23 10° E visible
20 Oct - 03:30:03 10° W 03:47:11 71° S 04:10:47 10° ESE visible
20 Oct - 05:53:00 10° W 06:13:32 58° SSW 06:35:00 10° SE visible
20 Oct - 08:19:30 10° W 08:37:43 31° SW 08:53:44 10° S daylight
20 Oct - 23:12:43 10° SSW 23:21:49 31° SE 23:36:15 10° E visible
21 Oct - 01:30:17 10° WSW 01:43:27 62° SSE 02:05:09 10° E visible
21 Oct - 03:51:10 10° W 04:08:43 70° S 04:32:13 10° ESE visible
21 Oct - 06:14:29 10° W 06:34:45 52° SSW 06:55:34 10° SE visible
21 Oct - 08:42:22 10° W 08:58:16 24° SW 09:12:29 10° S daylight
21 Oct - 23:32:38 10° SSW 23:42:17 39° SE 23:58:24 10° E visible
22 Oct - 01:51:05 10° WSW 02:04:40 67° SSE 02:26:53 10° E visible
22 Oct - 04:12:21 10° W 04:30:13 67° SSW 04:53:31 10° ESE visible
22 Oct - 06:36:05 10° W 06:55:50 45° SSW 07:15:50 10° SSE visible
22 Oct - 09:06:24 10° W 09:18:43 17° SW 09:30:02 10° SSW daylight
22 Oct - 21:39:16 10° SSE 21:43:39 14° SE 21:49:07 10° E night (unlit)
22 Oct - 23:52:51 10° SW 00:02:55 47° SSE 00:20:21 10° E visible
23 Oct - 02:12:00 10° WSW 02:26:00 69° S 02:48:35 10° E visible
23 Oct - 04:33:34 10° W 04:51:39 63° SSW 05:14:37 10° SE visible
23 Oct - 06:57:54 10° W 07:16:46 38° SW 07:35:42 10° SSE daylight
23 Oct - 09:34:02 10° WSW 09:39:06 11° SW 09:44:00 10° SW daylight
23 Oct - 21:57:32 10° S 22:03:47 20° SE 22:12:45 10° E night (unlit)
24 Oct - 00:13:19 10° SW 00:23:44 54° SSE 00:42:12 10° E visible
24 Oct - 02:32:59 10° W 02:47:22 70° S 03:10:12 10° ESE visible
24 Oct - 04:54:50 10° W 05:13:01 57° SSW 05:35:30 10° SE visible
24 Oct - 07:20:04 10° W 07:37:35 31° SW 07:55:04 10° S daylight
24 Oct - 22:16:53 10° S 22:24:04 27° SE 22:35:19 10° E night (unlit)
25 Oct - 00:33:56 10° WSW 00:44:43 60° SSE 01:04:00 10° E visible
25 Oct - 02:54:01 10° W 03:08:48 68° S 03:31:43 10° ESE visible
25 Oct - 05:16:13 10° W 05:34:16 51° SSW 05:56:06 10° SE visible
25 Oct - 07:42:50 10° W 07:58:19 24° SW 08:13:44 10° S daylight
25 Oct - 22:36:45 10° SSW 22:44:29 35° SE 22:57:27 10° E night (unlit)
26 Oct - 00:54:42 10° WSW 01:05:49 64° SSE 01:25:45 10° E visible
26 Oct - 03:15:06 10° W 03:30:13 65° SSW 03:53:05 10° ESE visible
26 Oct - 05:37:43 10° W 05:55:26 44° SSW 06:16:21 10° SSE visible
26 Oct - 08:06:44 10° W 08:18:58 17° SW 08:31:09 10° SSW daylight
26 Oct - 22:56:58 10° SW 23:05:04 43° SSE 23:19:22 10° E visible
27 Oct - 01:15:33 10° WSW 01:27:02 67° S 01:47:28 10° E visible
27 Oct - 03:36:14 10° W 03:51:36 60° SSW 04:14:16 10° SE visible
27 Oct - 05:59:27 10° W 06:16:31 37° SW 06:36:12 10° SSE visible
27 Oct - 08:34:09 10° WSW 08:39:35 11° SW 08:45:02 10° SW daylight
27 Oct - 21:02:12 10° SSE 21:06:34 16° SE 21:12:20 10° E night (unlit)
27 Oct - 23:17:23 10° SW 23:25:49 50° SSE 23:41:10 10° E visible
28 Oct - 01:36:28 10° W 01:48:18 67° S 02:09:07 10° ESE visible
28 Oct - 03:57:25 10° W 04:12:57 55° SSW 04:35:11 10° SE visible
28 Oct - 06:21:32 10° W 06:37:29 30° SW 06:55:30 10° S visible
28 Oct - 21:21:21 10° S 21:26:51 23° SE 21:35:01 10° E night (unlit)
28 Oct - 23:37:59 10° WSW 23:46:43 57° SSE 00:02:55 10° E visible
29 Oct - 01:57:26 10° W 02:09:37 66° S 02:30:41 10° ESE visible
29 Oct - 04:18:42 10° W 04:34:13 48° SSW 04:55:47 10° SE visible
29 Oct - 06:44:15 10° W 06:58:23 23° SW 07:14:00 10° S visible
29 Oct - 21:41:08 10° SSW 21:47:15 30° SE 21:57:07 10° E night (unlit)
